Starlink 6321

operational
NORAD ID: 57340 Int'l Des: 2023-099 Owner: SPXS Country: US Constellation: starlink
LEOCIRCULAR

关于 Starlink 6321

正在加载描述...

实时位置

正在加载3D地球...

即将过境

高度历史

Altitude vs Time

uPlot chart will show altitude changes over time

两行轨道根数

1 57340U 23099N 25258.02823729 -.00000270 00000-0 -49250-5 0 9993
2 57340 43.0033 123.3724 0001001 268.6345 91.4383 15.02533478119694
Epoch: Sep 15, 2025 • Age: 24 hours

当前状态

高度 561.8 km
速度 7.59 km/s
星下点 38.20°N, 166.27°E
发射日期 Jul 16, 2023
运行时间 2.1 years
类型 internet

技术详情

分类 Payload
质量 305.00 kg
干质量 290.00 kg
总质量 305.00 kg
长度 0.20 m
直径 2.80 m
跨度 9.00 m
形状 Box + pan
制造商 SPXS
平台类型 Starlink
阶段状态 In Orbit
所有者/国家 SPXS/US

大型星座

Loading constellations...